Wind_Speed
17 17 16 16 15 15 16 16 17 16 14 13 14 14 13 13 15 16 15 16 16 17 18 17 16 14 13 13 14 16 17 17 16 13 11 11 12 12 12 11 11 10 11 11 11 10 10 11 11 11 11 12 12 11 8 7 5 5 7 10 10 12 12 12 12 11 9 10 11 11 11 9 8 8 10 10 9 8 9 9 9 9 11 12 11
17 16 16 16 15 14 14 13 15 17 17 17 16 16 15 14 15 17 16 16 16 17 17 18 18 17 15 15 13 13 14 15 15 14 12 11 11 11 11 11 12 13 14 14 13 11 11 12 12 13 14 14 12 9 7 6 5 7 10 9 8 9 9 10 10 9 9 11 13 12 11 10 9 9 10 12 12 11 11 11 10 10 12 14 14
16 16 16 16 16 16 16 16 16 17 20 21 21 21 20 18 18 19 18 17 17 17 18 18 18 18 17 17 15 13 12 12 13 15 14 13 12 12 12 12 12 14 15 14 13 12 12 13 12 11 12 11 10 8 8 8 10 12 12 10 10 11 10 10 10 10 11 13 13 12 11 11 11 12 12 12 12 12 12 12 12 12 13 15 16
17 15 15 16 17 18 19 19 18 17 17 18 19 21 22 21 20 21 21 20 19 18 19 20 20 19 19 19 18 17 15 13 13 15 16 15 15 14 15 15 14 14 15 15 14 13 12 12 11 10 10 10 10 10 11 13 14 15 13 11 12 12 12 12 13 12 13 14 13 12 12 12 13 13 12 11 11 11 10 10 11 12 13 15 16
16 15 15 16 17 17 18 19 19 18 16 16 17 19 20 20 20 20 21 22 21 20 20 21 22 22 21 20 19 18 18 17 15 15 16 15 15 16 16 18 18 17 17 17 16 15 14 14 13 13 12 12 12 12 13 14 15 14 13 13 14 14 13 13 13 13 14 14 13 13 12 13 13 12 11 11 10 10 9 9 10 11 13 14 16
16 16 16 17 17 17 18 19 19 19 19 18 17 17 18 18 17 18 20 21 21 22 20 20 22 23 23 22 21 19 18 18 18 18 17 17 17 17 17 17 17 16 16 17 17 18 17 17 17 15 15 14 15 15 15 14 14 14 15 15 15 14 13 13 12 13 14 14 14 14 13 13 12 11 11 12 11 10 9 10 11 11 13 14 15
14 16 17 18 19 18 19 20 19 18 19 19 17 16 15 16 16 18 20 21 20 21 21 21 21 22 23 22 20 19 18 17 18 19 20 20 20 20 19 17 17 17 17 19 20 19 19 17 15 14 15 14 15 16 15 14 14 15 16 16 15 14 14 13 13 13 13 14 15 15 15 14 13 12 11 11 10 10 10 11 12 12 13 13 13
13 16 17 17 18 18 20 22 21 19 18 16 15 15 14 15 16 17 20 22 21 20 20 21 20 20 22 22 21 21 20 19 18 18 18 20 21 21 20 19 19 18 20 22 21 19 17 14 12 13 14 14 14 15 15 15 15 15 15 15 15 15 14 14 14 14 14 15 15 15 15 14 14 13 13 12 11 10 11 12 13 13 13 13 11
12 15 15 14 15 16 18 20 20 19 17 15 15 16 16 16 16 16 18 22 23 21 19 20 21 21 22 22 22 22 21 21 21 21 21 20 21 22 21 21 22 22 23 24 23 20 17 15 13 13 15 16 15 15 15 15 14 14 15 15 15 15 15 16 17 17 18 18 16 15 15 15 15 14 14 13 13 13 12 13 14 14 13 12 11
10 13 14 14 14 15 16 17 17 16 15 15 16 17 17 18 18 18 18 19 20 20 19 20 22 21 20 20 21 21 21 21 20 21 22 22 22 23 23 23 23 23 24 24 23 20 18 17 16 15 16 17 16 16 15 15 15 15 15 15 15 15 16 17 19 19 20 19 17 15 16 16 15 14 15 15 15 15 14 13 14 15 15 14 12
10 12 14 15 14 13 13 13 14 15 15 16 17 17 18 19 20 20 18 17 17 20 21 20 20 18 17 17 17 17 17 18 18 19 20 20 21 22 24 23 22 22 23 23 22 20 19 19 19 18 17 16 15 16 17 16 16 15 15 15 15 15 15 16 17 17 18 18 18 17 19 19 18 17 17 17 17 17 16 15 14 15 15 16 14
12 12 12 12 12 13 12 10 10 12 14 15 16 18 19 19 19 19 19 18 18 19 19 18 17 15 15 17 18 16 14 15 17 18 18 18 19 21 22 23 22 21 21 21 21 20 19 19 18 19 19 17 16 16 16 16 16 16 16 16 16 16 16 16 16 16 17 18 19 20 21 21 20 19 19 19 19 19 18 17 16 15 16 17 16
13 14 14 13 12 12 11 9 8 10 11 13 15 16 17 18 18 18 18 18 18 18 18 17 17 17 17 18 19 19 20 20 20 19 20 19 19 20 21 22 22 21 21 21 20 19 19 17 17 18 20 20 19 18 17 16 17 17 18 18 18 18 18 18 18 18 18 19 20 21 21 21 21 20 19 20 21 20 20 19 18 16 16 16 16
11 11 13 14 15 13 10 8 7 9 9 9 11 13 14 15 16 16 16 16 17 19 20 20 20 20 19 17 16 18 21 23 22 22 22 21 20 19 20 21 22 22 22 21 20 20 21 20 19 20 20 18 17 18 18 18 17 17 18 18 19 19 20 21 20 20 19 20 21 22 21 21 22 21 21 21 23 22 23 23 22 20 19 18 17
7 6 7 9 10 11 11 10 9 11 10 7 7 9 10 12 13 14 14 15 16 18 18 19 20 19 17 15 16 19 21 22 22 22 22 21 20 19 19 20 21 22 23 21 20 20 21 22 22 22 21 19 18 18 18 17 18 18 19 19 20 21 21 22 22 22 22 22 22 22 22 21 22 23 22 23 24 23 23 24 23 22 21 21 20
3 1 0 1 2 4 6 7 7 8 8 6 4 5 6 8 9 11 12 14 15 16 16 17 17 16 15 14 17 20 20 20 21 21 21 21 21 20 20 20 19 19 20 20 19 20 20 21 21 21 21 22 22 21 19 19 21 21 21 21 22 23 23 23 23 23 23 23 23 23 23 23 24 25 24 24 25 24 23 23 24 23 23 23 23
7 6 6 6 4 2 1 1 1 2 2 2 2 3 4 5 6 8 9 11 12 13 14 15 16 16 15 14 16 19 20 21 22 23 23 22 21 21 21 21 20 19 19 19 19 18 18 18 18 19 21 22 22 22 21 22 23 24 24 24 24 25 25 24 24 24 23 23 23 24 24 25 26 26 25 25 25 25 25 25 24 24 24 24 24
12 11 11 11 9 7 6 4 4 4 4 3 3 2 1 0 2 3 4 6 7 8 9 11 12 14 15 16 17 19 21 22 23 24 25 24 22 22 22 22 21 20 19 18 18 17 17 18 17 17 19 20 21 21 22 22 23 24 25 25 25 26 26 25 25 25 25 25 25 25 25 25 25 26 25 25 24 24 26 26 25 25 25 26 26
15 14 13 10 9 8 7 6 6 6 6 7 6 6 6 5 4 3 3 3 4 4 5 6 6 6 5 11 16 16 17 20 23 25 26 25 22 21 22 22 21 20 20 18 17 16 17 17 17 16 17 18 19 20 21 21 22 23 24 24 25 26 27 27 27 27 28 29 29 28 28 27 27 27 26 25 23 23 25 26 26 26 28 28 28
16 15 13 11 9 9 8 7 7 7 7 7 7 7 7 6 6 6 6 6 6 7 8 10 12 14 11 4 3 6 7 9 11 15 20 23 24 23 23 23 21 19 20 19 18 17 17 16 16 16 16 17 18 18 19 19 20 21 22 24 26 27 28 29 29 29 31 32 31 31 31 31 30 29 27 25 24 24 26 26 26 27 29 30 30
16 15 13 12 11 11 10 10 9 9 8 7 6 7 7 6 5 5 6 6 7 7 9 11 11 11 12 10 7 6 7 9 8 6 4 8 15 18 19 21 20 18 18 19 18 18 17 16 16 16 16 16 17 18 18 19 20 21 23 25 26 28 29 30 30 30 31 31 31 31 31 30 30 29 27 24 24 26 27 28 28 29 30 31 32
17 16 15 13 13 12 11 11 11 11 10 8 7 6 6 5 4 5 6 7 7 8 10 11 11 10 9 8 6 4 5 6 6 6 6 5 6 6 4 8 10 10 11 12 12 13 13 14 15 15 15 15 16 18 19 21 21 22 23 24 25 26 27 28 28 28 27 27 28 28 28 28 28 28 26 23 23 26 27 28 29 30 30 31 32
16 16 15 14 13 13 12 11 11 12 12 11 10 10 9 8 7 6 7 8 8 9 10 11 11 10 10 8 7 7 7 7 7 7 6 6 6 7 6 2 1 2 4 7 9 9 10 11 13 13 12 13 15 16 17 18 19 19 20 21 21 23 23 24 24 25 25 25 25 25 24 23 22 21 21 21 22 24 25 25 27 28 29 30 31
14 15 14 14 15 15 15 14 14 14 13 13 12 13 13 12 11 11 11 10 10 10 11 11 11 11 13 13 12 13 12 12 12 11 10 10 9 9 8 5 3 1 3 5 7 8 9 10 10 8 6 7 9 10 11 13 14 15 17 18 18 19 20 20 21 21 21 20 19 18 17 17 15 15 17 18 19 20 21 21 22 23 23 22 22
14 14 15 16 17 17 18 18 18 18 17 16 15 16 15 14 15 15 14 14 14 14 14 14 14 15 15 15 15 15 14 14 14 13 12 12 12 12 11 9 7 5 3 2 2 3 3 3 3 1 1 2 4 6 8 10 12 14 15 15 16 16 16 17 17 17 16 15 13 13 14 15 14 14 15 16 15 15 16 15 15 15 14 13 13
15 15 16 17 18 18 19 19 20 20 19 19 19 19 18 16 16 17 16 16 16 16 16 15 15 15 15 15 15 15 14 13 13 13 12 12 12 12 11 10 10 8 7 7 6 6 5 5 4 3 2 2 3 5 8 11 14 15 15 14 14 14 13 14 13 11 10 10 11 11 12 12 10 10 10 10 9 8 8 8 8 8 7 6 7
13 15 16 16 16 17 17 18 19 19 20 20 21 21 20 19 17 17 17 16 15 15 14 14 14 15 15 15 16 16 16 15 14 13 13 13 13 13 13 12 11 10 10 10 9 7 7 6 5 4 3 3 4 6 9 12 15 15 13 12 12 12 12 12 11 9 8 7 7 5 4 3 3 2 1 1 1 2 2 0 1 1 1 1 3
9 11 13 13 14 14 14 15 17 17 18 19 20 21 22 21 20 20 20 19 18 17 17 16 16 16 16 16 16 16 16 17 16 16 16 15 15 14 14 13 12 11 11 10 8 7 6 5 4 5 4 4 6 8 11 14 16 14 13 13 13 14 14 13 11 9 8 6 5 4 5 5 6 7 7 7 8 8 7 6 6 8 8 7 7
7 9 10 10 10 11 11 12 14 15 16 17 18 19 20 21 21 22 22 22 21 21 20 19 18 17 17 16 16 17 17 17 17 17 17 17 16 15 14 13 11 10 10 8 7 6 6 5 5 5 4 6 8 11 13 15 15 14 14 14 14 14 14 13 12 11 10 10 10 10 10 10 11 10 10 11 12 12 10 9 10 10 10 8 7
7 9 8 9 9 7 8 10 12 13 14 16 16 16 18 19 19 20 21 21 21 21 22 21 19 19 19 17 17 17 17 17 16 17 17 17 16 15 14 12 9 7 6 5 5 4 4 4 4 4 4 6 9 11 11 12 13 13 14 13 13 12 11 12 12 11 11 12 12 13 12 12 13 13 13 15 15 13 11 10 10 9 8 8 7
7 7 6 5 6 5 6 7 9 10 11 13 13 13 14 15 16 17 18 18 18 19 21 22 21 20 20 20 19 17 16 16 15 15 15 16 16 16 15 12 8 6 5 4 4 4 4 5 5 5 6 7 8 9 9 9 10 11 11 9 9 9 9 10 11 10 11 11 12 14 14 14 14 14 14 14 13 11 10 9 8 7 7 7 7
8 8 6 4 3 3 4 4 4 6 6 7 8 9 10 11 13 14 14 15 15 16 17 18 20 21 21 20 19 17 15 14 14 14 14 15 15 15 14 13 11 10 8 6 6 6 5 6 6 7 7 8 8 8 7 6 8 10 10 6 6 7 7 8 8 8 9 10 11 13 13 13 13 13 12 10 9 8 8 6 6 6 7 8 7
9 9 9 8 4 1 1 2 2 3 4 3 3 5 7 8 9 11 12 13 12 12 13 15 16 18 19 19 18 17 15 13 12 12 13 13 13 13 13 13 13 13 12 12 12 11 8 7 8 9 9 9 8 6 5 5 7 10 9 5 4 5 6 6 6 6 7 8 9 10 9 9 9 8 8 7 6 5 5 5 5 5 6 7 6
8 8 8 8 6 3 2 4 5 4 3 2 1 2 4 5 6 9 11 12 11 9 9 12 14 15 16 16 16 16 15 13 11 11 11 10 10 10 10 11 12 13 14 15 16 15 12 11 11 11 10 10 9 6 5 5 7 9 8 4 3 4 4 3 4 6 6 5 4 4 5 5 6 6 6 5 5 4 5 5 5 6 7 8 7
6 6 5 5 5 4 4 7 8 6 3 2 1 1 1 3 6 9 10 9 9 8 6 8 11 13 13 13 14 14 14 13 11 9 8 8 7 6 6 7 9 12 14 16 16 16 14 11 12 12 11 11 10 9 7 7 7 7 7 5 4 4 3 3 4 6 6 4 3 3 3 3 5 6 7 6 6 6 7 8 8 9 9 9 8
5 5 3 2 1 5 7 10 10 6 5 4 2 1 0 1 5 8 8 7 7 7 6 7 7 8 10 11 11 11 11 11 10 9 7 6 7 7 6 7 8 10 12 13 13 15 14 11 10 10 10 11 11 10 10 9 8 7 6 5 5 4 3 3 4 5 4 4 5 5 5 5 6 7 8 9 9 10 11 11 12 11 10 10 10
4 3 1 2 6 9 10 9 5 2 5 6 4 3 3 3 4 6 7 7 8 7 6 6 5 6 7 8 8 8 8 7 7 7 6 5 7 9 8 7 7 8 9 9 10 12 13 10 8 7 7 8 8 8 8 8 7 6 4 3 4 4 4 4 5 5 5 6 6 7 7 8 9 10 10 11 11 12 13 14 14 13 12 11 11
2 1 2 5 7 9 9 6 1 3 2 3 3 3 3 4 4 4 5 6 7 7 6 4 3 5 7 7 7 7 6 4 3 4 6 5 6 7 6 5 6 7 7 6 7 9 9 9 9 10 10 8 5 4 3 3 3 3 3 3 3 4 4 5 6 6 7 8 8 9 9 10 11 12 13 14 14 15 16 17 17 16 14 12 12
1 1 2 4 5 6 6 6 5 2 2 1 2 4 4 2 2 3 5 6 7 7 8 6 3 3 5 6 7 8 6 2 3 1 6 7 7 7 6 6 8 8 8 7 8 8 8 8 9 12 13 11 9 6 4 2 2 3 3 4 5 5 6 7 8 10 11 11 12 13 13 14 15 16 17 17 18 18 18 18 18 17 14 11 9
4 2 1 2 3 3 3 5 6 5 2 2 5 6 4 2 2 2 3 4 6 7 8 7 5 4 3 3 4 7 6 1 3 3 5 5 5 4 5 6 7 6 6 7 9 9 8 7 7 9 11 12 12 10 9 8 6 6 6 7 8 9 9 10 11 12 13 14 14 15 15 16 16 16 17 17 17 17 16 14 13 12 10 8 6
8 8 6 3 0 1 3 4 6 5 2 2 4 5 4 3 3 2 3 4 5 6 7 8 7 6 5 6 7 9 8 4 4 3 4 5 4 2 2 2 3 2 3 6 8 8 6 6 7 9 11 13 13 11 10 10 10 10 10 11 11 12 12 12 12 12 12 13 13 13 14 15 15 14 14 13 13 12 10 9 8 7 5 5 4
7 8 8 7 4 2 2 3 4 5 4 3 4 5 5 6 6 6 6 5 4 5 7 8 8 9 9 9 10 11 9 4 4 2 2 2 1 1 3 3 3 4 5 8 8 7 6 7 9 11 13 14 13 11 9 8 9 11 13 15 15 14 13 13 13 12 11 11 12 13 14 14 13 12 11 12 11 8 5 6 8 5 2 2 3
4 3 3 3 3 3 3 2 2 4 4 4 5 7 7 6 6 7 7 6 6 6 6 7 8 9 9 10 10 10 7 3 3 1 2 4 5 4 5 5 3 4 6 7 7 7 9 10 12 13 15 16 16 15 12 10 11 12 14 17 18 17 17 16 15 15 14 13 13 13 13 13 12 11 11 11 10 6 3 5 7 4 2 2 3
3 6 6 5 4 4 4 3 2 3 3 2 3 3 3 5 7 7 6 6 5 4 3 5 7 8 8 10 11 10 6 4 4 2 4 6 5 4 5 5 3 3 5 5 6 8 10 13 13 14 14 16 18 18 18 17 17 17 18 19 19 19 19 19 18 18 18 17 16 15 15 14 12 10 8 8 7 4 3 3 4 3 3 5 5
6 8 6 4 3 3 3 3 4 4 4 3 3 3 2 4 6 5 4 5 6 6 6 8 8 7 7 9 11 11 7 4 5 3 5 8 7 6 6 6 6 7 7 8 8 10 11 13 13 12 13 15 17 19 20 21 22 23 23 24 22 20 19 19 20 20 20 19 19 17 14 12 10 6 4 4 4 3 2 3 4 5 7 8 9
6 7 6 4 3 2 3 4 4 4 3 3 3 2 1 3 3 2 2 4 5 5 6 7 8 8 8 9 11 11 8 6 7 6 7 8 9 8 8 8 9 11 10 10 11 12 13 14 13 13 14 15 17 20 21 22 23 24 24 23 22 21 20 19 19 20 19 20 19 14 9 6 5 2 3 4 5 5 3 3 3 4 6 9 9
7 7 5 2 1 1 1 2 2 2 3 3 2 2 1 3 3 3 3 4 5 5 6 7 9 10 10 10 11 10 7 7 9 9 9 10 11 10 9 9 11 11 11 12 13 15 15 16 16 16 15 16 19 21 22 23 24 24 23 23 23 23 22 21 20 19 17 15 13 8 5 6 5 1 3 4 5 5 6 7 5 3 4 5 6
6 5 3 1 2 3 2 1 1 0 2 4 4 5 5 6 5 4 4 4 5 5 5 6 8 9 9 9 9 9 6 5 6 7 9 11 11 11 10 10 11 11 11 13 15 16 16 17 18 18 18 20 21 21 22 23 24 25 25 24 24 23 23 22 20 16 12 8 5 6 5 6 7 4 1 3 4 6 7 8 8 7 5 4 4
4 3 4 2 3 4 2 1 1 0 2 3 4 4 5 6 6 4 4 4 4 3 4 5 6 8 8 7 6 6 6 7 8 9 8 9 11 11 11 11 11 12 12 14 16 16 16 16 17 19 21 22 23 22 22 23 24 25 25 24 22 21 21 20 15 9 3 3 6 6 4 4 4 4 3 3 4 4 3 5 8 9 7 4 2
2 3 4 4 4 5 3 2 2 2 1 1 3 4 4 5 6 5 5 5 5 3 2 2 3 4 5 4 3 3 5 7 10 11 12 11 12 12 13 13 14 14 14 15 16 17 17 17 18 19 21 22 22 22 22 24 25 25 24 22 21 21 19 14 8 2 5 7 7 5 4 3 3 3 4 3 2 3 2 5 8 7 1 2 2
2 1 2 3 5 6 6 4 4 3 2 1 1 1 2 4 6 6 6 6 6 5 4 2 2 1 1 1 1 2 4 6 8 11 12 12 12 12 13 14 14 15 14 15 15 16 17 19 19 20 21 21 22 22 23 25 25 25 22 21 20 18 14 8 3 3 6 7 6 5 4 3 2 1 2 2 1 3 4 5 7 7 4 4 4
Wind_Direction
217 214 212 215 219 221 226 228 223 220 217 217 228 242 241 226 227 239 240 235 230 220 218 228 237 243 245 241 236 234 236 241 247 256 258 251 243 239 240 244 247 254 264 266 264 263 262 258 256 255 256 262 269 275 286 290 276 266 284 292 283 279 281 285 295 303 301 301 310 314 310 307 306 297 293 301 309 303 290 288 288 289 299 310 309
218 216 210 207 211 220 230 236 232 223 215 215 220 231 242 237 233 242 245 241 241 236 226 221 225 235 246 251 253 246 238 237 243 252 262 264 259 251 249 248 245 248 258 266 270 270 268 265 261 256 255 262 271 280 295 309 298 277 276 280 278 277 276 280 290 298 296 299 305 307 308 313 312 305 302 303 305 300 292 289 283 276 285 295 298
214 213 211 206 203 210 222 229 231 225 217 217 217 216 223 228 224 229 238 242 243 245 244 237 230 232 237 243 251 256 253 245 243 249 258 267 269 264 265 267 255 246 253 264 272 271 266 263 264 264 262 264 270 275 279 280 276 270 269 271 273 274 276 277 279 284 289 294 300 307 312 313 310 310 308 302 300 297 292 287 279 275 283 290 295
215 211 214 213 205 208 218 224 230 233 229 228 226 221 223 227 225 222 225 230 232 233 239 245 246 244 240 235 238 245 252 253 250 251 255 260 266 265 264 270 269 258 255 262 270 274 270 266 269 275 273 268 264 260 258 259 262 265 266 268 270 268 268 271 273 277 281 285 292 301 309 312 314 315 312 304 300 297 295 290 282 281 288 292 295
215 214 218 216 207 210 221 228 233 238 240 237 232 230 232 235 236 233 229 229 229 227 228 235 242 247 246 242 239 238 238 242 246 251 253 254 260 262 260 264 268 264 255 255 261 269 271 271 274 276 273 269 266 262 258 257 258 263 264 265 266 266 267 268 270 274 279 284 288 292 301 311 315 318 313 306 300 296 295 293 289 292 297 300 301
214 219 222 218 211 212 221 228 233 237 242 245 239 233 236 241 241 242 242 239 234 231 231 235 239 241 243 244 246 244 238 236 237 240 245 248 255 260 262 265 270 272 270 263 257 254 256 261 268 272 273 273 272 270 267 265 265 268 270 270 268 269 270 271 273 277 283 287 287 290 298 305 306 310 310 305 301 299 298 296 297 301 306 308 305
208 212 215 216 217 219 223 229 236 240 241 245 244 237 239 248 246 244 247 248 242 235 234 238 240 240 242 243 242 242 240 240 240 240 241 244 248 253 257 263 270 275 275 269 262 258 257 259 263 267 268 266 267 269 268 268 270 271 273 274 272 272 273 273 275 278 281 283 284 289 297 301 301 302 303 303 303 306 308 306 305 307 311 312 304
201 204 209 217 222 224 227 231 235 238 237 239 239 235 240 248 245 243 245 246 248 247 245 246 243 239 242 245 243 238 236 237 240 241 242 242 244 248 250 252 256 261 263 265 268 272 272 269 264 261 262 263 268 275 273 270 272 276 279 277 275 276 276 274 274 275 277 279 283 290 297 298 298 297 297 297 298 303 308 306 305 308 312 316 309
208 207 211 221 229 228 226 229 231 231 231 234 235 237 242 243 239 241 245 244 243 246 252 256 252 242 239 244 250 247 239 238 239 240 240 241 244 247 248 247 249 252 257 263 270 274 275 273 264 256 263 272 278 283 281 278 279 281 282 280 280 281 280 279 279 280 281 280 283 289 293 292 295 297 295 293 294 298 302 302 302 305 309 315 315
225 223 223 224 227 227 221 223 229 231 232 236 240 242 243 241 241 247 251 248 243 241 247 255 256 251 248 250 256 255 246 242 243 243 245 250 253 253 252 250 250 252 256 261 267 271 273 272 265 259 264 270 273 278 282 284 286 287 285 282 282 283 284 283 282 283 284 283 284 288 288 288 292 294 292 291 292 294 298 300 300 301 304 308 310
227 229 230 226 223 224 222 222 228 235 241 244 246 248 246 243 245 247 247 246 244 243 245 248 250 253 254 251 252 254 248 244 246 247 251 257 261 259 255 250 250 253 257 259 261 265 268 270 267 263 261 263 270 280 286 289 291 290 288 286 284 285 289 290 287 286 285 286 288 290 289 290 292 290 289 288 288 289 291 292 294 298 302 305 306
226 217 217 217 211 208 212 220 226 232 238 242 245 246 248 247 245 241 239 240 242 242 242 243 244 247 249 247 245 246 246 249 253 255 257 262 266 264 257 252 251 253 257 259 260 262 265 268 268 264 264 268 273 275 278 283 287 287 286 287 286 285 287 290 290 288 286 286 287 288 288 291 293 293 291 289 288 286 284 283 287 292 296 298 300
232 227 223 227 224 212 206 212 229 236 236 238 242 242 244 247 246 244 243 243 242 243 244 248 252 252 253 253 247 241 241 248 255 257 259 262 264 262 258 254 252 253 255 257 261 262 262 264 267 267 268 272 273 270 269 273 278 283 284 286 286 285 283 284 284 285 284 283 283 285 288 290 292 296 299 297 293 287 282 280 281 281 282 284 288
231 237 235 240 248 247 240 239 253 265 262 253 250 250 249 250 251 253 254 253 251 251 253 256 258 258 257 253 247 244 246 249 253 256 259 259 258 258 258 257 255 255 255 256 259 261 262 264 266 265 266 268 269 268 268 269 272 277 280 282 283 283 281 280 281 282 282 281 283 286 289 289 289 294 298 295 292 288 282 280 279 277 277 276 275
222 236 239 241 245 249 250 252 260 275 287 288 272 263 259 256 255 256 256 254 254 255 257 258 256 255 254 251 250 253 255 256 256 257 258 257 256 257 259 261 260 258 257 257 258 258 258 259 261 261 262 263 262 262 264 268 273 275 276 279 281 281 281 281 281 281 281 282 283 285 287 287 287 289 290 289 288 286 280 277 276 276 276 274 269
175 186 254 245 232 236 246 250 249 257 275 291 284 271 266 260 259 259 257 255 255 254 256 257 255 253 253 255 256 255 253 255 257 256 254 255 255 254 255 258 259 257 254 254 253 252 254 256 257 259 260 260 261 263 266 271 275 276 275 276 278 280 282 283 282 282 282 282 281 281 281 283 284 286 286 285 284 281 275 271 272 272 272 271 267
99 87 76 72 69 62 349 308 246 236 255 281 276 272 273 267 264 263 263 264 265 264 262 263 264 264 263 260 259 256 254 254 254 251 249 251 253 252 250 247 246 245 246 249 251 252 255 258 258 260 262 263 266 268 269 270 273 275 275 275 277 279 282 283 283 282 282 280 278 277 278 279 281 283 282 282 282 280 273 268 267 269 270 269 266
90 89 83 75 69 70 76 81 85 91 98 102 109 119 111 324 280 267 269 276 282 283 283 280 277 275 269 259 257 260 261 260 258 256 252 248 246 245 243 241 239 240 243 246 250 252 254 256 257 259 263 267 269 270 270 271 273 275 276 277 278 279 281 282 281 281 281 280 279 279 278 278 278 279 280 281 280 277 273 270 268 269 268 268 267
82 82 82 77 67 67 76 87 90 88 87 89 90 93 94 85 75 66 47 16 355 354 2 4 4 360 308 256 250 257 261 256 253 251 248 245 240 236 234 234 233 234 239 242 244 246 249 252 254 257 261 264 268 269 270 272 275 277 278 279 280 281 281 282 283 283 283 283 283 283 281 279 278 277 279 280 278 275 274 273 272 270 268 267 266
72 73 77 79 73 67 66 71 76 76 73 72 73 77 82 78 63 49 43 39 30 28 38 44 47 49 49 35 284 293 302 289 266 249 241 239 237 231 228 229 230 233 238 242 240 239 242 247 252 258 260 261 264 267 270 272 275 277 279 281 282 283 283 283 283 284 285 286 286 285 285 284 282 281 279 277 275 274 274 273 273 271 268 266 265
64 66 69 71 67 62 60 62 66 69 69 68 68 71 74 69 49 29 28 34 33 33 41 47 51 54 55 53 43 19 7 6 359 344 299 255 246 236 224 223 227 232 236 240 240 238 238 243 248 251 255 258 262 266 270 273 276 279 282 284 284 284 284 285 285 285 285 286 286 285 285 286 286 286 285 282 277 275 273 274 276 274 268 264 263
63 63 65 67 66 61 59 61 62 63 64 65 67 67 65 58 41 22 19 22 23 26 32 40 45 50 56 61 59 41 25 22 15 12 17 357 310 296 249 212 218 229 237 247 251 242 236 245 255 259 260 263 268 272 276 279 281 284 286 286 286 286 287 288 289 288 287 286 286 285 286 287 288 288 286 282 277 275 274 276 278 276 270 268 268
72 70 68 68 69 68 66 64 63 63 62 61 63 62 56 48 40 34 34 32 30 33 36 38 41 48 57 64 61 51 41 34 29 22 12 5 0 1 9 31 170 222 236 250 255 244 238 250 265 271 270 272 278 281 284 288 290 291 291 291 292 292 292 292 292 291 290 289 288 290 291 291 291 289 286 281 277 276 277 279 279 275 271 272 272
77 76 71 65 63 64 65 65 63 61 60 59 61 61 58 53 50 49 50 51 53 57 58 55 55 60 65 65 60 54 49 41 37 36 29 23 24 24 22 22 15 326 260 251 251 248 248 256 266 273 278 284 290 292 293 295 299 302 302 300 300 299 298 298 297 296 296 296 298 301 302 301 300 295 289 285 281 281 280 279 277 274 272 271 266
67 67 67 65 62 60 61 63 63 61 60 61 62 62 60 58 58 58 59 62 64 68 70 69 67 65 62 59 54 50 49 45 41 40 39 36 35 36 36 35 35 29 9 334 301 278 267 267 270 272 315 328 318 313 313 316 319 321 320 317 313 311 310 309 308 308 307 305 307 309 306 304 302 291 280 274 272 273 273 270 268 268 270 269 257
61 57 57 59 60 60 59 59 60 60 60 60 61 61 59 57 59 59 59 61 63 64 66 64 61 56 49 46 46 45 45 47 47 46 47 46 46 47 47 46 47 45 45 46 42 44 60 71 74 74 60 14 335 329 335 339 337 333 330 328 327 326 327 329 331 330 323 313 310 308 301 294 285 270 260 257 255 256 260 261 260 258 261 262 243
62 56 51 47 49 54 58 59 59 60 61 60 59 60 58 56 58 58 56 54 53 53 54 52 50 48 46 45 46 47 48 50 52 53 54 53 52 54 55 57 59 62 67 68 68 73 84 86 73 56 49 28 5 359 356 351 345 339 338 342 348 354 358 360 2 4 356 339 326 317 297 270 245 212 172 135 120 104 93 167 241 183 119 155 167
77 73 67 53 41 40 49 56 55 56 58 56 54 55 53 51 52 52 51 49 47 45 45 46 47 49 51 52 52 51 52 53 53 54 55 54 54 55 56 58 66 77 80 79 79 87 94 96 86 76 73 58 32 17 7 359 352 352 0 8 15 20 22 23 28 33 33 32 45 70 85 90 89 89 90 93 96 96 95 100 103 96 87 83 89
93 97 90 77 56 39 36 44 47 48 51 51 49 49 47 44 43 44 44 45 45 44 42 42 43 44 45 48 50 49 49 49 49 50 51 52 53 54 54 57 64 75 77 71 70 79 85 90 92 85 67 39 19 11 10 6 1 7 19 25 28 34 39 42 47 54 59 64 73 83 88 92 94 97 100 101 102 103 103 99 93 86 75 67 68
106 113 107 96 85 62 40 37 39 40 44 45 46 46 43 38 37 39 40 41 43 42 40 38 39 38 36 37 39 42 46 45 44 46 48 48 49 49 52 56 60 65 64 52 45 55 56 53 58 48 22 14 10 8 11 12 12 18 27 34 38 43 52 59 64 71 76 80 87 95 99 101 99 97 99 102 102 101 96 88 85 82 71 59 54
93 103 104 99 94 84 68 53 39 31 32 35 37 37 34 31 30 33 37 39 41 41 39 37 37 35 33 32 32 36 43 46 48 52 52 50 49 49 50 55 54 46 33 6 353 4 2 351 348 348 355 7 12 10 8 8 14 17 20 35 52 56 64 75 82 88 91 93 99 103 103 100 97 93 95 97 97 93 85 75 72 67 54 46 46
68 65 58 52 58 84 92 79 55 42 37 33 28 23 20 22 22 25 29 33 36 40 39 38 38 34 29 28 30 32 39 47 56 62 61 57 53 49 44 45 45 37 22 4 358 1 356 353 360 10 21 27 27 20 8 0 10 11 6 22 62 72 81 88 88 89 92 96 104 108 106 103 101 99 101 101 101 100 91 72 59 48 32 25 30
54 42 33 25 11 349 105 60 31 32 35 36 32 24 22 23 19 16 17 18 24 33 36 35 35 30 25 28 32 33 39 52 63 68 67 64 61 54 43 36 32 27 22 21 22 21 25 40 48 47 46 43 39 35 25 13 14 11 4 12 71 85 91 97 90 80 87 101 111 111 104 96 92 91 93 90 84 83 74 56 44 29 8 357 358
44 23 18 26 19 0 53 49 26 4 358 1 99 63 45 37 14 356 354 359 4 13 26 31 29 23 22 29 35 36 42 54 65 74 75 70 63 58 48 36 24 17 16 22 25 27 39 61 67 61 59 56 51 47 34 18 14 14 13 27 72 73 72 79 65 55 65 85 105 101 85 77 68 56 50 49 45 38 31 19 0 344 339 336 339
56 29 29 54 39 1 6 12 359 351 1 1 301 280 60 52 20 357 349 356 2 6 18 28 24 17 16 23 31 36 42 50 60 71 77 70 56 44 36 30 24 17 15 19 24 27 36 57 70 70 69 68 65 60 50 37 30 30 35 48 55 48 48 50 36 34 40 39 21 6 8 23 29 22 13 5 354 343 340 336 328 327 330 331 336
76 59 63 97 355 323 329 332 332 353 50 51 23 5 79 61 31 15 5 357 351 354 11 23 21 17 14 15 24 33 37 43 52 60 60 46 27 11 9 25 32 24 15 16 21 26 33 49 68 75 75 76 74 70 64 60 58 56 53 49 39 30 23 7 0 3 10 11 0 346 334 327 330 335 335 332 328 323 321 321 319 319 322 323 325
66 69 39 300 300 311 321 321 318 46 55 39 40 65 62 37 21 14 9 357 340 341 6 28 28 16 4 1 20 36 33 30 40 46 43 23 360 355 4 24 32 25 19 17 19 21 25 35 47 52 59 73 79 76 72 69 67 67 63 45 23 8 350 341 341 337 335 339 339 331 321 312 310 311 312 312 313 311 310 311 310 310 313 315 314
41 39 303 302 303 313 328 342 60 138 103 41 33 32 22 13 357 347 3 14 6 356 358 1 354 350 348 348 360 15 22 41 63 31 11 357 344 344 354 10 15 16 20 22 17 9 9 18 26 22 19 23 27 33 51 59 49 41 30 10 358 353 343 333 325 318 315 315 313 311 307 303 302 302 301 302 303 303 304 306 304 303 305 308 307
48 20 340 330 325 325 344 19 50 96 154 148 351 347 352 358 338 330 347 10 17 12 7 5 358 355 1 1 355 354 2 77 147 353 344 346 346 344 350 6 12 11 12 12 6 358 356 8 20 18 13 9 359 340 323 322 340 343 334 325 321 320 317 311 306 302 300 299 299 300 299 299 299 299 300 302 303 303 305 306 304 302 301 299 294
204 223 268 3 358 346 14 42 35 29 45 15 352 0 6 340 312 325 330 338 351 357 1 8 13 6 8 8 352 348 346 288 207 259 307 315 326 338 353 7 10 8 9 5 357 349 345 350 359 359 355 353 350 340 324 310 302 301 303 304 301 299 296 293 291 291 293 296 301 303 303 304 308 311 312 311 310 310 310 309 306 301 295 290 292
227 224 219 212 152 57 58 35 9 356 341 312 331 358 4 326 316 320 303 310 341 351 352 359 2 355 349 342 335 336 332 297 241 255 290 290 296 319 342 352 349 341 344 343 338 333 331 333 336 337 334 334 338 339 332 318 308 306 307 307 303 300 298 296 295 297 301 306 308 309 312 316 321 324 323 320 318 319 319 322 321 308 288 292 321
263 249 242 236 214 156 92 33 357 349 345 312 305 320 321 308 308 314 307 305 330 338 337 347 352 348 339 331 329 334 332 295 220 207 252 247 217 179 192 206 234 269 301 320 324 326 332 329 322 320 321 323 326 328 326 319 314 315 318 317 311 307 305 304 304 306 310 312 311 312 316 322 328 330 329 328 331 333 334 342 346 343 303 302 329
294 264 230 196 151 100 52 25 346 333 340 335 316 316 323 329 337 340 337 334 335 328 323 332 346 348 336 325 329 339 331 260 207 209 230 193 177 179 183 178 198 273 297 308 313 317 321 320 316 314 315 317 318 316 313 312 314 317 320 319 314 307 301 297 297 299 299 299 299 301 304 309 316 323 326 327 328 321 317 349 357 356 315 296 296
127 124 121 111 78 30 13 15 352 303 311 353 359 346 2 11 3 355 348 337 329 320 310 323 343 356 343 324 328 335 316 232 202 248 250 220 204 205 201 188 197 253 267 273 284 298 307 310 312 312 310 308 308 307 306 308 311 315 317 317 312 304 296 290 289 292 293 293 293 293 291 291 297 312 331 333 319 290 276 327 340 306 268 284 288
152 135 120 89 31 351 324 322 320 304 300 328 337 319 333 350 343 339 347 341 323 303 290 295 314 338 338 319 318 323 307 240 193 193 224 224 217 207 209 230 256 259 257 265 278 290 299 302 304 303 300 298 299 301 303 307 312 316 317 315 312 306 299 292 289 289 290 291 293 294 291 285 283 298 343 344 307 264 257 301 306 280 270 280 292
141 118 94 63 21 336 300 298 311 318 326 336 324 296 325 351 338 321 3 9 348 325 308 300 301 312 317 306 302 308 299 250 216 209 218 228 230 220 217 235 256 260 265 276 286 293 298 299 299 298 297 295 296 298 302 308 314 317 317 315 312 310 306 300 296 293 289 287 287 287 279 261 252 287 349 311 272 256 261 283 311 313 286 277 284
111 106 94 66 350 285 310 316 305 312 335 337 296 225 278 346 333 307 318 338 334 321 311 301 295 298 303 298 295 298 290 253 240 244 247 247 248 246 242 244 251 258 269 282 291 297 300 302 303 302 299 297 298 301 306 312 316 319 319 318 317 316 314 312 310 305 296 287 277 261 230 215 216 224 0 317 282 286 289 274 270 301 318 305 303
102 126 134 123 202 210 224 293 245 243 351 338 307 283 291 305 307 298 302 322 333 333 324 308 296 295 300 304 303 299 283 242 228 240 248 249 248 247 246 250 256 263 273 283 290 293 296 300 305 307 305 304 305 308 312 316 318 319 320 322 323 322 321 320 318 311 301 281 236 198 197 219 224 220 275 314 317 325 309 283 275 281 285 305 331
100 190 208 206 209 217 230 286 249 163 33 3 344 333 322 311 303 296 292 300 318 340 342 331 320 312 307 307 307 293 262 221 195 195 213 230 235 238 244 251 259 266 274 281 285 287 289 295 302 307 309 309 311 313 315 317 318 317 319 322 326 326 325 324 319 309 278 183 166 171 191 220 217 212 237 294 339 344 300 293 313 312 286 271 341
87 240 228 215 221 236 254 276 275 274 308 3 36 36 3 319 303 299 296 297 304 314 322 335 344 339 326 317 308 279 251 232 217 212 220 230 237 243 250 257 260 263 269 276 282 287 291 297 302 306 307 307 309 310 312 315 317 317 318 323 328 329 329 329 322 263 175 161 161 174 192 192 183 211 247 273 19 48 5 332 350 358 16 123 49
126 207 224 233 245 251 254 252 252 265 289 315 48 61 4 336 319 307 300 296 297 299 298 286 274 286 330 324 272 217 220 226 222 219 226 237 245 248 252 256 257 257 261 266 272 279 288 295 300 302 303 303 305 308 311 314 316 317 320 326 329 330 329 328 313 209 184 178 179 190 211 223 216 212 243 259 44 55 35 7 10 25 54 50 8
Height
1551 1553 1554 1556 1557 1557 1558 1559 1560 1562 1563 1564 1566 1567 1568 1569 1570 1571 1571 1572 1572 1573 1573 1573 1573 1574 1574 1575 1576 1576 1576 1576 1577 1577 1578 1578 1579 1579 1580 1581 1581 1581 1581 1582 1582 1582 1582 1581 1582 1582 1582 1582 1581 1581 1582 1582 1582 1582 1582 1581 1581 1580 1580 1579 1578 1578 1578 1577 1577 1576 1575 1574 1574 1573 1573 1572 1572 1571 1571 1571 1570 1569 1567 1566 1566
1550 1552 1553 1554 1556 1557 1557 1558 1559 1560 1561 1562 1564 1565 1567 1568 1569 1570 1571 1571 1572 1572 1572 1572 1573 1573 1572 1573 1573 1574 1574 1574 1575 1576 1576 1577 1577 1577 1578 1579 1579 1579 1579 1580 1580 1580 1580 1580 1580 1580 1580 1580 1580 1580 1580 1580 1580 1580 1580 1579 1579 1578 1578 1577 1577 1576 1576 1576 1575 1575 1574 1573 1573 1572 1571 1571 1570 1570 1569 1569 1569 1567 1566 1565 1565
1548 1550 1552 1553 1554 1555 1556 1556 1556 1557 1558 1558 1560 1561 1563 1564 1565 1567 1568 1569 1570 1571 1571 1572 1572 1572 1571 1571 1571 1572 1573 1573 1573 1574 1574 1575 1575 1576 1577 1577 1577 1578 1578 1578 1578 1579 1578 1578 1578 1578 1578 1578 1578 1579 1579 1579 1578 1578 1578 1578 1577 1577 1576 1575 1575 1575 1574 1574 1574 1573 1572 1572 1571 1571 1570 1569 1569 1568 1568 1567 1567 1566 1565 1564 1563
1545 1547 1549 1551 1552 1553 1553 1553 1554 1555 1556 1557 1558 1560 1561 1561 1562 1563 1564 1564 1565 1567 1569 1570 1571 1571 1570 1570 1570 1570 1571 1571 1572 1572 1573 1573 1574 1574 1575 1575 1576 1576 1576 1576 1576 1576 1576 1576 1576 1576 1576 1576 1577 1577 1577 1577 1577 1576 1576 1576 1576 1575 1574 1574 1573 1573 1572 1572 1571 1571 1571 1570 1570 1569 1568 1568 1567 1567 1566 1566 1565 1565 1564 1563 1562
1544 1545 1547 1549 1550 1550 1551 1552 1553 1554 1555 1556 1557 1558 1559 1560 1561 1561 1561 1561 1562 1563 1565 1567 1568 1569 1568 1568 1568 1569 1569 1570 1570 1571 1571 1572 1572 1573 1573 1574 1574 1574 1574 1574 1574 1574 1574 1574 1574 1574 1575 1575 1575 1575 1575 1575 1575 1574 1574 1574 1573 1573 1573 1572 1572 1571 1571 1570 1570 1569 1569 1568 1568 1567 1567 1566 1566 1565 1565 1564 1564 1563 1563 1562 1561
1542 1543 1544 1546 1547 1548 1549 1550 1551 1552 1553 1554 1555 1556 1556 1557 1558 1558 1559 1560 1561 1561 1562 1563 1565 1566 1566 1566 1566 1566 1567 1567 1568 1569 1569 1570 1571 1571 1571 1572 1572 1572 1572 1572 1571 1571 1571 1571 1572 1572 1572 1572 1573 1573 1573 1573 1573 1573 1572 1572 1572 1572 1572 1571 1570 1570 1570 1569 1568 1567 1567 1566 1565 1565 1565 1564 1564 1563 1563 1563 1563 1562 1562 1560 1559
1539 1540 1542 1544 1545 1546 1547 1548 1549 1551 1552 1552 1553 1554 1554 1555 1556 1557 1557 1558 1559 1559 1559 1561 1562 1562 1562 1562 1562 1563 1564 1564 1565 1566 1567 1568 1568 1569 1569 1570 1570 1570 1569 1569 1568 1569 1569 1569 1569 1570 1571 1571 1571 1571 1571 1571 1571 1571 1571 1571 1570 1570 1570 1569 1568 1568 1568 1567 1566 1566 1565 1564 1563 1563 1563 1562 1562 1562 1561 1561 1561 1560 1560 1559 1558
1537 1539 1540 1541 1543 1544 1545 1546 1547 1549 1549 1550 1551 1551 1552 1552 1553 1555 1556 1556 1557 1557 1556 1558 1559 1559 1559 1558 1558 1559 1561 1562 1562 1563 1564 1565 1566 1566 1567 1568 1568 1567 1567 1567 1567 1568 1568 1567 1567 1568 1569 1569 1569 1569 1569 1569 1569 1569 1569 1569 1569 1568 1568 1567 1566 1566 1565 1565 1564 1563 1562 1562 1561 1561 1560 1560 1560 1559 1559 1559 1558 1558 1558 1557 1556
1536 1537 1538 1540 1541 1541 1542 1543 1545 1546 1547 1547 1548 1549 1549 1550 1550 1552 1553 1554 1555 1555 1555 1556 1557 1557 1556 1555 1555 1556 1558 1559 1560 1561 1562 1562 1563 1564 1564 1565 1565 1565 1565 1565 1565 1566 1566 1566 1566 1566 1567 1567 1568 1568 1568 1568 1568 1568 1567 1567 1567 1566 1566 1565 1565 1564 1563 1562 1562 1561 1560 1560 1559 1559 1558 1558 1557 1557 1557 1556 1556 1555 1555 1555 1555
1534 1535 1536 1538 1539 1539 1540 1541 1542 1543 1544 1545 1545 1546 1546 1547 1548 1549 1549 1550 1551 1552 1553 1554 1554 1554 1553 1552 1554 1555 1556 1557 1558 1558 1559 1560 1561 1561 1562 1562 1562 1562 1563 1563 1563 1564 1564 1565 1565 1565 1565 1565 1566 1566 1566 1567 1566 1566 1566 1565 1565 1565 1564 1563 1562 1562 1561 1560 1560 1559 1558 1558 1558 1557 1557 1556 1556 1555 1555 1554 1554 1553 1553 1553 1553
1532 1534 1535 1537 1538 1538 1538 1539 1539 1541 1541 1542 1542 1543 1544 1545 1545 1546 1546 1547 1548 1549 1551 1551 1550 1551 1550 1549 1551 1554 1555 1555 1556 1556 1557 1558 1558 1559 1559 1559 1559 1559 1560 1560 1561 1561 1562 1563 1563 1563 1563 1562 1563 1564 1564 1565 1564 1564 1564 1563 1563 1563 1562 1561 1560 1560 1559 1558 1558 1557 1556 1556 1556 1555 1555 1554 1554 1553 1552 1552 1552 1551 1551 1551 1551
1532 1534 1535 1536 1536 1537 1537 1538 1538 1539 1539 1540 1540 1540 1541 1542 1543 1544 1544 1545 1545 1546 1548 1549 1548 1548 1548 1548 1549 1551 1552 1554 1554 1554 1554 1555 1556 1556 1556 1556 1556 1557 1557 1558 1559 1559 1559 1560 1561 1560 1560 1560 1560 1560 1561 1561 1561 1561 1561 1561 1561 1560 1560 1559 1558 1558 1557 1556 1556 1555 1555 1554 1553 1553 1552 1552 1551 1551 1550 1550 1549 1549 1548 1548 1548
1532 1534 1535 1535 1534 1534 1535 1536 1536 1537 1537 1538 1538 1538 1539 1540 1541 1542 1542 1543 1544 1544 1544 1545 1546 1546 1547 1547 1548 1548 1549 1550 1550 1551 1552 1552 1553 1553 1553 1554 1554 1554 1555 1556 1557 1557 1557 1558 1559 1558 1557 1557 1557 1557 1557 1558 1558 1558 1558 1558 1558 1558 1557 1557 1556 1556 1555 1554 1553 1553 1552 1552 1551 1550 1550 1549 1548 1548 1548 1547 1547 1545 1545 1544 1544
1531 1532 1532 1532 1531 1531 1532 1533 1534 1535 1535 1536 1536 1537 1538 1538 1538 1539 1540 1540 1541 1540 1541 1542 1543 1544 1544 1544 1545 1546 1545 1546 1546 1548 1549 1549 1550 1550 1550 1551 1552 1552 1553 1553 1554 1555 1555 1556 1556 1555 1555 1555 1556 1555 1555 1556 1556 1556 1555 1555 1555 1555 1555 1555 1554 1553 1553 1552 1551 1550 1550 1549 1548 1547 1548 1547 1546 1546 1545 1544 1543 1542 1542 1541 1541
1529 1529 1529 1529 1530 1530 1531 1532 1533 1534 1535 1535 1535 1535 1536 1536 1536 1537 1537 1537 1537 1537 1538 1539 1540 1541 1541 1541 1542 1542 1542 1542 1543 1544 1545 1546 1547 1548 1548 1549 1549 1550 1550 1551 1551 1551 1552 1552 1553 1553 1553 1554 1554 1554 1553 1553 1552 1552 1552 1552 1552 1552 1552 1552 1551 1551 1550 1549 1549 1548 1547 1547 1546 1545 1545 1545 1544 1543 1542 1541 1541 1540 1539 1538 1537
1528 1528 1528 1529 1530 1531 1532 1532 1534 1535 1534 1533 1533 1533 1534 1534 1534 1534 1534 1535 1535 1535 1536 1536 1537 1538 1538 1538 1538 1538 1538 1539 1539 1540 1541 1542 1544 1545 1545 1546 1546 1547 1547 1548 1548 1548 1548 1549 1550 1550 1551 1551 1551 1551 1550 1550 1549 1549 1548 1548 1548 1548 1548 1548 1548 1547 1547 1546 1546 1545 1544 1544 1543 1543 1543 1542 1541 1540 1539 1538 1538 1537 1536 1535 1534
1528 1528 1528 1529 1530 1531 1532 1532 1533 1533 1532 1532 1532 1532 1533 1532 1532 1532 1532 1533 1533 1534 1534 1534 1534 1535 1535 1536 1535 1535 1535 1537 1536 1536 1537 1538 1540 1542 1542 1543 1544 1544 1545 1545 1545 1545 1546 1546 1547 1547 1548 1547 1548 1548 1547 1547 1546 1545 1545 1544 1544 1544 1544 1544 1543 1543 1543 1542 1542 1542 1541 1541 1540 1539 1539 1539 1538 1537 1536 1535 1535 1535 1534 1532 1531
1529 1529 1529 1530 1531 1532 1532 1532 1532 1532 1531 1531 1531 1532 1532 1531 1531 1531 1531 1531 1532 1532 1532 1532 1532 1532 1532 1533 1533 1532 1533 1534 1534 1534 1534 1535 1536 1537 1539 1540 1541 1542 1542 1542 1542 1543 1543 1543 1544 1544 1545 1545 1545 1545 1544 1544 1543 1542 1541 1541 1540 1540 1540 1540 1539 1539 1539 1538 1538 1538 1537 1537 1537 1536 1536 1536 1535 1534 1533 1532 1531 1531 1530 1529 1529
1529 1530 1531 1531 1532 1533 1533 1533 1532 1532 1531 1531 1531 1531 1531 1531 1531 1531 1531 1531 1531 1531 1531 1531 1531 1530 1529 1530 1530 1531 1532 1531 1531 1531 1531 1531 1532 1533 1535 1536 1537 1538 1539 1539 1540 1540 1540 1540 1540 1541 1542 1542 1542 1542 1541 1541 1540 1539 1538 1538 1537 1537 1536 1536 1536 1535 1535 1534 1534 1534 1533 1533 1533 1532 1532 1532 1532 1531 1529 1528 1528 1528 1526 1526 1526
1530 1531 1532 1532 1533 1534 1534 1533 1533 1532 1531 1531 1531 1531 1531 1531 1531 1531 1531 1531 1530 1530 1530 1530 1530 1529 1529 1529 1529 1530 1531 1530 1529 1528 1527 1528 1530 1530 1531 1532 1533 1534 1535 1536 1537 1537 1537 1538 1538 1538 1539 1539 1540 1539 1539 1539 1538 1537 1536 1535 1534 1533 1533 1533 1532 1532 1531 1530 1530 1529 1528 1528 1528 1527 1527 1528 1528 1527 1526 1525 1525 1524 1523 1522 1522
1532 1532 1533 1533 1535 1536 1535 1534 1533 1532 1531 1531 1531 1531 1532 1532 1532 1532 1532 1531 1531 1530 1530 1530 1531 1530 1529 1529 1529 1531 1531 1530 1529 1527 1527 1528 1529 1528 1527 1528 1530 1531 1532 1533 1534 1534 1535 1535 1535 1535 1536 1537 1537 1537 1537 1536 1536 1534 1533 1532 1531 1530 1529 1529 1529 1528 1527 1526 1525 1524 1523 1523 1522 1522 1522 1522 1523 1523 1522 1521 1521 1520 1520 1518 1517
1535 1535 1535 1536 1537 1536 1536 1535 1534 1533 1533 1532 1532 1532 1532 1532 1533 1532 1532 1532 1531 1531 1530 1530 1530 1530 1530 1529 1530 1531 1530 1529 1529 1528 1527 1528 1529 1528 1525 1525 1527 1530 1531 1532 1533 1534 1534 1533 1533 1533 1535 1535 1535 1536 1535 1534 1533 1532 1531 1530 1529 1527 1526 1525 1525 1524 1523 1522 1521 1520 1519 1519 1518 1517 1517 1517 1517 1517 1517 1518 1517 1516 1516 1515 1514
1539 1539 1539 1539 1538 1537 1537 1536 1536 1535 1534 1533 1532 1532 1532 1533 1533 1533 1533 1533 1532 1531 1531 1530 1530 1530 1530 1530 1530 1530 1530 1529 1529 1528 1527 1528 1528 1527 1526 1526 1527 1529 1531 1531 1531 1532 1532 1531 1530 1532 1533 1534 1534 1533 1533 1532 1531 1530 1529 1528 1526 1525 1523 1522 1521 1520 1519 1519 1517 1516 1516 1515 1514 1514 1513 1513 1513 1513 1514 1514 1513 1512 1512 1511 1511
1542 1541 1540 1540 1539 1538 1538 1537 1537 1536 1534 1534 1533 1533 1533 1533 1533 1533 1533 1533 1533 1532 1531 1531 1531 1531 1531 1531 1531 1530 1529 1529 1529 1528 1528 1528 1527 1526 1527 1527 1528 1529 1530 1530 1530 1530 1530 1530 1529 1530 1531 1532 1532 1531 1531 1530 1529 1528 1527 1526 1524 1523 1521 1519 1518 1517 1516 1515 1514 1513 1513 1512 1512 1511 1511 1511 1510 1510 1511 1511 1510 1510 1509 1509 1509
1542 1542 1541 1540 1539 1539 1538 1537 1537 1536 1535 1535 1534 1534 1534 1534 1534 1534 1534 1533 1533 1533 1533 1533 1533 1532 1532 1532 1531 1531 1530 1530 1529 1529 1529 1528 1527 1527 1527 1528 1528 1528 1528 1529 1529 1529 1529 1529 1529 1529 1530 1530 1530 1530 1529 1529 1528 1527 1526 1524 1522 1520 1519 1517 1516 1515 1514 1513 1512 1512 1511 1510 1510 1510 1509 1509 1509 1509 1509 1509 1509 1509 1509 1509 1509
1543 1542 1541 1540 1540 1539 1539 1538 1538 1537 1537 1537 1536 1536 1536 1535 1535 1535 1535 1535 1535 1534 1534 1534 1534 1533 1533 1532 1532 1531 1531 1530 1530 1530 1529 1529 1529 1528 1528 1528 1528 1528 1528 1528 1528 1528 1529 1529 1529 1529 1529 1529 1528 1528 1528 1528 1527 1526 1524 1523 1521 1519 1517 1516 1515 1513 1512 1511 1511 1510 1510 1509 1509 1509 1508 1508 1509 1509 1509 1509 1509 1509 1510 1510 1510
1543 1543 1542 1541 1541 1540 1540 1540 1539 1539 1539 1539 1538 1538 1538 1538 1537 1537 1536 1536 1536 1535 1535 1535 1534 1534 1533 1533 1532 1532 1531 1531 1530 1530 1530 1530 1530 1529 1529 1529 1528 1528 1528 1528 1528 1528 1529 1529 1529 1529 1529 1528 1528 1528 1528 1527 1526 1525 1523 1522 1520 1518 1517 1515 1514 1513 1512 1511 1510 1509 1509 1509 1509 1509 1509 1509 1509 1509 1509 1510 1510 1510 1511 1511 1511
1544 1544 1543 1543 1542 1542 1542 1542 1541 1541 1541 1541 1540 1540 1540 1540 1539 1538 1538 1537 1537 1537 1536 1536 1535 1535 1534 1534 1534 1533 1532 1532 1531 1531 1530 1530 1530 1530 1529 1529 1529 1529 1528 1528 1528 1528 1529 1529 1529 1529 1528 1528 1528 1527 1527 1527 1526 1525 1523 1522 1520 1519 1517 1516 1515 1514 1513 1512 1511 1510 1510 1510 1510 1510 1510 1510 1510 1510 1511 1511 1511 1512 1512 1513 1512
1545 1545 1545 1544 1544 1544 1543 1543 1543 1543 1543 1542 1542 1542 1541 1541 1541 1540 1539 1539 1538 1538 1538 1537 1537 1537 1536 1536 1535 1534 1533 1533 1532 1532 1531 1531 1531 1531 1530 1530 1530 1529 1529 1530 1529 1529 1529 1529 1529 1529 1528 1528 1528 1527 1527 1526 1525 1525 1524 1522 1521 1520 1519 1518 1517 1516 1515 1514 1514 1513 1513 1512 1512 1512 1512 1512 1512 1512 1513 1513 1514 1514 1514 1514 1513
1545 1546 1545 1545 1546 1545 1545 1544 1544 1544 1544 1544 1544 1544 1543 1543 1543 1542 1541 1541 1540 1540 1539 1539 1538 1538 1538 1537 1536 1535 1535 1534 1534 1533 1533 1532 1532 1531 1531 1531 1531 1530 1531 1530 1530 1530 1529 1529 1529 1529 1529 1528 1528 1527 1527 1526 1525 1525 1524 1524 1523 1522 1521 1520 1519 1518 1518 1517 1517 1516 1515 1515 1514 1514 1514 1514 1514 1514 1514 1514 1515 1515 1515 1515 1514
1546 1546 1546 1546 1546 1546 1546 1545 1545 1545 1544 1544 1544 1545 1545 1544 1544 1544 1543 1543 1542 1542 1541 1541 1540 1540 1539 1539 1538 1537 1537 1536 1535 1535 1534 1534 1533 1533 1532 1532 1532 1531 1531 1531 1530 1530 1530 1529 1529 1529 1529 1529 1528 1527 1527 1526 1526 1525 1525 1524 1524 1523 1523 1522 1521 1521 1520 1520 1519 1519 1518 1517 1517 1516 1516 1516 1516 1516 1516 1516 1516 1516 1515 1515 1515
1547 1547 1547 1547 1547 1546 1546 1546 1545 1545 1545 1545 1545 1545 1545 1545 1545 1545 1544 1544 1544 1543 1543 1543 1542 1541 1541 1540 1539 1539 1538 1537 1537 1537 1536 1536 1535 1534 1534 1533 1533 1532 1532 1531 1530 1530 1529 1529 1529 1529 1529 1528 1528 1528 1527 1527 1527 1526 1526 1525 1525 1524 1524 1524 1524 1523 1523 1522 1522 1521 1520 1519 1519 1518 1518 1518 1518 1518 1517 1517 1517 1516 1516 1516 1516
1548 1548 1548 1548 1547 1547 1546 1546 1546 1546 1546 1545 1546 1546 1545 1546 1546 1546 1545 1545 1545 1544 1544 1544 1543 1542 1542 1541 1541 1540 1539 1539 1538 1538 1537 1537 1536 1536 1535 1534 1533 1532 1532 1531 1530 1529 1529 1529 1529 1528 1528 1528 1528 1528 1528 1528 1528 1527 1527 1526 1526 1526 1526 1526 1526 1526 1525 1524 1524 1523 1523 1522 1521 1521 1520 1520 1519 1519 1519 1519 1518 1518 1517 1517 1517
1548 1548 1548 1548 1547 1547 1546 1546 1546 1546 1546 1546 1546 1546 1546 1546 1546 1546 1546 1545 1545 1545 1544 1544 1544 1543 1542 1542 1541 1541 1540 1540 1539 1539 1539 1538 1537 1537 1535 1534 1533 1532 1532 1531 1530 1530 1529 1529 1529 1529 1529 1529 1529 1529 1529 1529 1529 1528 1528 1528 1528 1528 1528 1528 1528 1528 1527 1527 1526 1526 1525 1524 1524 1523 1522 1521 1521 1521 1520 1520 1519 1519 1518 1517 1517
1548 1548 1548 1547 1547 1546 1546 1546 1546 1546 1546 1546 1546 1546 1546 1546 1546 1546 1545 1545 1545 1545 1545 1544 1544 1543 1543 1542 1542 1541 1541 1540 1540 1540 1539 1539 1538 1537 1536 1535 1534 1533 1532 1531 1531 1531 1530 1530 1530 1530 1530 1530 1530 1530 1530 1530 1530 1529 1529 1529 1529 1529 1529 1529 1529 1529 1529 1528 1528 1527 1526 1526 1525 1524 1523 1522 1522 1521 1520 1520 1519 1519 1518 1517 1517
1548 1548 1548 1547 1547 1547 1546 1546 1546 1546 1546 1546 1546 1546 1546 1546 1546 1546 1545 1545 1545 1545 1544 1544 1544 1544 1543 1543 1542 1542 1542 1541 1541 1540 1540 1539 1538 1538 1537 1536 1535 1534 1534 1533 1532 1532 1532 1532 1532 1531 1531 1531 1531 1531 1531 1531 1530 1530 1530 1531 1530 1530 1530 1530 1530 1529 1529 1528 1528 1527 1527 1526 1525 1524 1524 1523 1522 1521 1520 1519 1519 1518 1517 1517 1516
1548 1548 1547 1547 1547 1547 1546 1546 1546 1546 1546 1546 1546 1546 1546 1546 1546 1546 1545 1545 1545 1544 1544 1544 1544 1544 1543 1543 1543 1543 1542 1541 1541 1541 1540 1539 1538 1538 1537 1537 1536 1536 1535 1535 1534 1534 1533 1533 1533 1533 1533 1533 1532 1532 1532 1531 1531 1531 1531 1531 1531 1531 1530 1530 1529 1529 1529 1528 1527 1527 1526 1525 1525 1524 1523 1522 1521 1521 1520 1519 1518 1517 1517 1516 1515
1547 1547 1547 1547 1546 1546 1546 1546 1546 1546 1546 1546 1547 1547 1547 1546 1546 1546 1545 1545 1544 1544 1544 1544 1544 1544 1543 1543 1543 1542 1542 1541 1541 1540 1540 1540 1539 1538 1537 1537 1537 1537 1536 1536 1536 1535 1534 1534 1534 1534 1534 1534 1533 1533 1532 1532 1532 1531 1531 1531 1530 1530 1530 1529 1529 1528 1527 1527 1526 1526 1525 1524 1524 1523 1522 1521 1521 1520 1519 1518 1517 1516 1515 1515 1514
1546 1546 1546 1546 1545 1545 1546 1545 1545 1546 1546 1546 1546 1546 1546 1546 1546 1546 1545 1545 1544 1544 1543 1543 1543 1543 1543 1543 1543 1542 1542 1541 1540 1540 1540 1540 1539 1538 1537 1537 1537 1537 1536 1536 1536 1536 1535 1535 1535 1534 1534 1534 1533 1533 1532 1532 1531 1531 1531 1530 1530 1530 1529 1528 1528 1527 1526 1525 1525 1524 1523 1523 1522 1521 1520 1519 1519 1518 1517 1516 1515 1514 1514 1513 1512
1544 1544 1545 1545 1545 1545 1545 1545 1545 1545 1545 1546 1546 1546 1545 1545 1545 1545 1544 1544 1544 1543 1543 1543 1543 1543 1543 1543 1542 1542 1542 1541 1539 1539 1539 1539 1539 1538 1537 1537 1537 1537 1536 1536 1536 1535 1535 1534 1534 1534 1534 1533 1532 1532 1531 1531 1531 1530 1530 1529 1529 1528 1528 1527 1526 1525 1524 1524 1523 1522 1522 1521 1520 1519 1518 1517 1516 1515 1514 1514 1513 1512 1512 1511 1510
1542 1543 1543 1543 1543 1544 1544 1544 1544 1544 1545 1545 1545 1544 1544 1544 1543 1543 1543 1543 1543 1543 1543 1542 1542 1542 1542 1542 1542 1541 1541 1540 1539 1538 1538 1538 1538 1538 1537 1537 1537 1537 1536 1536 1536 1535 1534 1534 1534 1533 1533 1532 1532 1531 1531 1531 1530 1530 1529 1529 1528 1527 1526 1525 1525 1524 1524 1523 1522 1521 1520 1519 1519 1518 1517 1516 1515 1514 1513 1512 1512 1511 1510 1510 1509
1540 1541 1541 1542 1542 1542 1542 1543 1543 1543 1543 1543 1543 1543 1543 1542 1542 1542 1542 1542 1542 1542 1542 1541 1541 1541 1541 1541 1540 1540 1540 1539 1538 1538 1538 1537 1537 1537 1537 1537 1537 1536 1536 1536 1535 1535 1535 1534 1534 1533 1532 1532 1532 1531 1530 1530 1530 1530 1529 1529 1528 1527 1526 1525 1524 1524 1523 1522 1521 1520 1519 1519 1518 1517 1516 1515 1514 1513 1512 1512 1511 1511 1510 1509 1509
1538 1538 1539 1540 1541 1541 1542 1542 1542 1542 1542 1542 1542 1542 1541 1541 1541 1541 1541 1541 1541 1541 1540 1540 1540 1540 1540 1539 1539 1539 1539 1538 1538 1537 1537 1536 1536 1535 1536 1536 1536 1536 1536 1536 1535 1535 1535 1534 1533 1532 1532 1531 1531 1530 1530 1530 1530 1530 1529 1529 1528 1527 1525 1524 1523 1523 1522 1521 1521 1519 1518 1518 1517 1516 1516 1515 1514 1513 1512 1512 1511 1511 1510 1509 1508
1537 1537 1538 1539 1539 1540 1540 1541 1540 1540 1540 1540 1540 1540 1540 1540 1540 1540 1540 1540 1539 1539 1539 1538 1538 1538 1538 1538 1538 1538 1538 1537 1537 1537 1536 1536 1535 1535 1535 1535 1536 1536 1535 1535 1534 1534 1534 1534 1533 1532 1531 1530 1530 1529 1529 1529 1529 1529 1529 1528 1527 1525 1524 1523 1522 1521 1520 1519 1519 1518 1517 1516 1516 1515 1515 1514 1513 1513 1512 1511 1511 1510 1509 1508 1508
1535 1536 1537 1537 1538 1539 1539 1539 1539 1539 1539 1539 1539 1539 1539 1539 1539 1538 1538 1538 1537 1537 1538 1537 1536 1536 1536 1536 1536 1536 1536 1536 1536 1536 1536 1535 1535 1534 1534 1535 1535 1535 1534 1534 1534 1533 1533 1533 1533 1532 1531 1530 1529 1528 1528 1528 1528 1528 1527 1526 1524 1523 1522 1521 1520 1519 1518 1517 1516 1516 1515 1515 1515 1514 1513 1513 1512 1512 1511 1510 1510 1510 1509 1508 1508
1535 1535 1536 1537 1538 1538 1538 1538 1538 1538 1538 1538 1537 1537 1537 1537 1537 1536 1536 1536 1536 1536 1536 1535 1535 1535 1534 1535 1535 1535 1535 1535 1535 1535 1535 1534 1534 1533 1534 1534 1534 1534 1533 1533 1532 1532 1532 1532 1531 1531 1531 1530 1529 1528 1527 1527 1527 1527 1525 1523 1522 1520 1519 1518 1517 1516 1515 1514 1513 1513 1513 1513 1513 1513 1512 1511 1511 1511 1510 1510 1509 1508 1508 1508 1507
1534 1535 1536 1537 1537 1537 1537 1537 1537 1537 1537 1536 1535 1535 1535 1535 1535 1535 1535 1534 1534 1534 1534 1533 1533 1533 1533 1533 1534 1534 1534 1534 1534 1534 1534 1533 1533 1533 1533 1533 1532 1532 1532 1531 1531 1531 1530 1530 1530 1530 1530 1529 1527 1527 1526 1525 1525 1524 1523 1521 1519 1518 1516 1515 1514 1512 1511 1510 1510 1511 1511 1512 1512 1511 1511 1511 1511 1510 1510 1509 1508 1508 1507 1507 1507
1534 1534 1535 1535 1536 1536 1536 1536 1536 1536 1535 1535 1535 1535 1535 1534 1534 1534 1533 1533 1533 1533 1532 1532 1532 1532 1532 1532 1532 1532 1533 1533 1533 1533 1533 1532 1532 1532 1532 1531 1531 1531 1531 1531 1530 1529 1528 1528 1528 1528 1527 1527 1526 1525 1525 1524 1523 1521 1520 1519 1517 1515 1513 1512 1510 1509 1508 1508 1508 1509 1510 1510 1511 1511 1510 1510 1510 1509 1509 1508 1508 1507 1507 1507 1506
1533 1533 1534 1534 1534 1534 1534 1535 1535 1534 1534 1534 1534 1534 1533 1533 1533 1533 1532 1532 1532 1531 1531 1531 1531 1531 1531 1531 1531 1531 1531 1532 1532 1532 1532 1531 1531 1531 1531 1531 1530 1530 1529 1529 1528 1527 1527 1527 1527 1527 1526 1524 1524 1523 1523 1522 1521 1519 1518 1517 1515 1513 1511 1509 1508 1507 1507 1507 1508 1509 1509 1509 1510 1510 1510 1509 1509 1509 1508 1508 1507 1506 1506 1506 1506
1531 1532 1533 1533 1533 1533 1533 1534 1533 1533 1533 1533 1533 1533 1532 1531 1531 1531 1531 1531 1531 1531 1530 1530 1530 1530 1530 1530 1530 1530 1531 1531 1531 1531 1531 1530 1530 1530 1530 1530 1530 1529 1529 1528 1527 1525 1525 1525 1525 1525 1524 1523 1522 1522 1521 1520 1519 1518 1516 1515 1513 1511 1509 1508 1507 1507 1507 1507 1508 1509 1509 1509 1509 1509 1509 1509 1509 1509 1508 1508 1507 1506 1506 1506 1506
1531 1532 1532 1532 1532 1532 1532 1533 1532 1532 1532 1533 1532 1532 1531 1530 1530 1530 1531 1530 1530 1530 1530 1530 1529 1529 1529 1529 1529 1529 1529 1529 1529 1530 1530 1529 1529 1529 1529 1528 1528 1528 1528 1527 1526 1525 1524 1524 1523 1522 1521 1521 1520 1520 1519 1518 1517 1516 1514 1513 1512 1510 1508 1507 1507 1507 1507 1508 1508 1508 1509 1509 1509 1508 1508 1509 1509 1508 1508 1508 1507 1507 1506 1506 1506